• Join FlightAware (Why Join?)
  • Login
  • US Flag 
12:08PM EDT


 

Airport Tracker/Info


-or-


 

Live Flight TrackerFlight Track Log ✈ EJA951 ✈ 13-Sep-2013 ✈ KSMO - KTUS

Flight Track Log - Related Links

Times and Time Zones

All times are in EDT time to prevent confusion due to time zone crossing. See the EJA951 flight status page for this flight to view local times or setup timezone preferences in your user account.

Time Position Orientation Groundspeed Altitude Reporting Facility
EDT Latitude Longitude Course Direction KTS MPH feet Rate Location/Type
12:34PM 34.0058 -118.5100 112° Southeast 178 205 3,200  Level Los Angeles Center
12:35PM 34.0128 -118.5828 277° West 215 247 5,600 1,800 Climbing Los Angeles Center
12:36PM 34.0739 -118.6058 343° North 263 303 7,000 1,140 Climbing Los Angeles Center
12:37PM 34.1283 -118.5642 32° Northeast 262 302 8,000 1,740 Climbing Los Angeles Center
12:38PM 34.2119 -118.5064 30° Northeast 286 329 10,700 1,800 Climbing Los Angeles Center
12:39PM 34.2983 -118.4625 23° Northeast 324 373 11,800 1,260 Climbing Los Angeles Center
12:40PM 33.8361 -117.6401 112° Southeast  Level Estimated
12:40PM 34.3931 -118.4106 24° Northeast 364 419 13,400  Level Los Angeles Center
12:41PM 34.4686 -118.3244 43° Northeast 371 427 15,400 1,680 Climbing Los Angeles Center
12:42PM 34.5347 -118.2214 52° Northeast 384 442 16,900 1,260 Climbing Los Angeles Center
12:44PM 34.6042 -118.1033 54° Northeast 389 448 18,100 1,200 Climbing Los Angeles Center
12:45PM 34.6031 -117.9653 91° East 417 480 19,500 1,200 Climbing Los Angeles Center
12:46PM 34.5606 -117.8303 111° Southeast 432 497 20,700 1,440 Climbing Los Angeles Center
12:47PM 34.5194 -117.6931 110° East 436 502 22,600 1,920 Climbing Los Angeles Center
12:48PM 34.4692 -117.5281 110° East 440 506 24,700 1,800 Climbing Los Angeles Center
12:49PM 34.4267 -117.3858 110° East 451 519 26,400 1,500 Climbing Los Angeles Center
12:50PM 34.3850 -117.2469 110° East 462 532 27,900 1,560 Climbing Los Angeles Center
12:51PM 34.3367 -117.0908 111° Southeast 475 547 29,700 1,740 Climbing Los Angeles Center
12:52PM 34.2900 -116.9383 110° East 487 560 31,500 1,680 Climbing Los Angeles Center
12:53PM 34.2328 -116.7517 110° East 496 571 33,200 1,620 Climbing Los Angeles Center
12:54PM 34.1819 -116.5906 111° Southeast 513 590 34,900 1,740 Climbing Los Angeles Center
12:55PM 34.1339 -116.4261 109° East 520 598 36,800 1,800 Climbing Los Angeles Center
12:56PM 34.0858 -116.2767 111° Southeast 503 579 38,700 1,920 Climbing Los Angeles Center
12:57PM 34.0264 -116.0908 111° Southeast 492 566 40,800 1,080 Climbing Los Angeles Center
12:58PM 33.9775 -115.9356 111° Southeast 493 567 41,000 60 Climbing Los Angeles Center
12:59PM 33.9225 -115.7636 111° Southeast 538 619 41,000  Level Los Angeles Center
01:00PM 33.8672 -115.5925 111° Southeast 544 626 41,000  Level Los Angeles Center
01:01PM 33.8108 -115.4197 111° Southeast 550 633 41,000  Level Los Angeles Center
01:02PM 33.7550 -115.2483 111° Southeast 550 633 41,000  Level Los Angeles Center
01:03PM 33.7050 -115.0733 109° East 553 636 41,000  Level Los Angeles Center
01:04PM 33.6414 -114.8664 110° East 553 636 41,000  Level Los Angeles Center
01:05PM 33.5892 -114.6950 110° East 549 632 41,000  Level Los Angeles Center
01:06PM 33.5386 -114.5236 109° East 547 629 41,000  Level Los Angeles Center
01:07PM 33.4861 -114.3533 110° East 546 628 41,000  Level Los Angeles Center
01:08PM 33.4328 -114.1822 110° East 549 632 41,000  Level Los Angeles Center
01:10PM 33.3756 -113.9872 109° East 550 633 41,000  Level Albuquerque Center
01:10PM 33.3161 -113.8053 111° Southeast 551 634 41,000 -180 Level Los Angeles Center
01:11PM 33.2625 -113.6350 111° Southeast 551 634 40,700 -600 Descending Los Angeles Center
01:12PM 33.2092 -113.4683 111° Southeast 542 624 39,800 -900 Descending Los Angeles Center
01:14PM 33.1611 -113.3125 110° East 537 618 38,900 -1,020 Descending Los Angeles Center
01:15PM 33.0983 -113.1122 110° East 536 617 37,700 -1,020 Descending Los Angeles Center
01:16PM 33.0433 -112.9411 111° Southeast 541 623 36,700 -1,020 Descending Albuquerque Center
01:17PM 32.9858 -112.7656 111° Southeast 555 639 35,600 -1,080 Descending Albuquerque Center
01:18PM 32.9267 -112.5919 112° Southeast 562 647 34,600 -2,160 Descending Albuquerque Center
01:19PM 32.8503 -112.3964 115° Southeast 546 628 31,100 -3,480 Descending Albuquerque Center
01:20PM 32.7883 -112.2342 114° Southeast 538 619 27,500 -3,540 Descending Albuquerque Center
01:21PM 32.7225 -112.0647 115° Southeast 535 616 23,900 -3,240 Descending Albuquerque Center
01:22PM 32.6642 -111.9164 115° Southeast 510 587 20,700 -2,760 Descending Albuquerque Center
01:23PM 32.6094 -111.7769 115° Southeast 474 545 18,200 -2,520 Descending Albuquerque Center
01:24PM 32.5681 -111.6806 117° Southeast 463 533 16,500 -2,220 Descending Albuquerque Center
01:24PM 32.5561 -111.6431 111° Southeast 457 526 16,000 -2,220 Descending Albuquerque Center
01:25PM 32.5003 -111.5494 125° Southeast 436 502 14,100 -2,280 Descending Albuquerque Center
01:25PM 32.4925 -111.5231 109° East 438 504 13,700 -1,980 Descending Albuquerque Center
01:26PM 32.4631 -111.4331 111° Southeast 402 463 12,300 -1,440 Descending Albuquerque Center
01:26PM 32.4539 -111.4050 111° Southeast 391 450 12,200 -900 Descending Albuquerque Center
01:27PM 32.4122 -111.3458 130° Southeast 322 371 11,400 -1,380 Descending Albuquerque Center
01:27PM 32.3911 -111.3094 124° Southeast 312 359 10,800 -1,800 Descending Albuquerque Center
01:28PM 32.3631 -111.2681 129° Southeast 293 337 9,600 -1,800 Descending Albuquerque Center
01:28PM 32.3414 -111.2344 127° Southeast 292 336 8,900 -1,620 Descending Albuquerque Center
01:29PM 32.3092 -111.1892 130° Southeast 288 331 8,000 -1,320 Descending Albuquerque Center
01:29PM 32.2942 -111.1614 123° Southeast 284 327 7,600 -780 Descending Albuquerque Center
01:30PM 32.2664 -111.1225 130° Southeast 259 298 7,200 -300 Descending Albuquerque Center
01:30PM 32.2539 -111.1008 124° Southeast 240 276 7,300 -720 Climbing Albuquerque Center
01:31PM 32.2342 -111.0783 136° Southeast 195 224 6,600 -1,320 Descending Albuquerque Center
01:31PM 32.2206 -111.0561 126° Southeast 197 227 6,000 -960 Descending Albuquerque Center
01:32PM 32.2008 -111.0394 144° Southeast 169 194 5,600 -1,080 Descending Albuquerque Center
01:32PM 32.1869 -111.0153 124° Southeast 163 188 4,900 -1,260 Descending Albuquerque Center
01:33PM 32.1786 -111.0128 166° South 131 151 4,500 -780 Descending Albuquerque Center
01:33PM 32.1672 -110.9972 131° Southeast 140 161 4,100 -1,140 Descending Albuquerque Center
01:34PM 32.1536 -110.9842 141° Southeast 125 144 3,400 -1,080 Descending Albuquerque Center
01:35PM 32.1258 -110.9514 135° Southeast 129 148 2,700 -660 Descending Albuquerque Center
01:37PM 32.1161 -110.9410 132° Southeast  Level Estimated